DUPLEX

Last updated on Wed Aug 19 2026 00:02:05 GMT+0000 (Coordinated Universal Time)

1 66906U 98067XS 26230.50849713 .00048562 00000+0 44688-3 0 9994 2 66906 51.6262 333.6822 0003516 38.3903 321.7343 15.67158557 40411
UTC large
Height (km)
Speed (km/s)
/
Latitude / Longitude
Inclination (degrees)
Orbital Period (minutes)
Azimuth
Elevation
Range (km)
Doppler Factor

Next 0 passes for location: London (51.5072 / 0.1276)

No passes found over London.
DUPLEX